OpenBCM V1.08-5-g2f4a (Linux)

Packet Radio Mailbox

IZ3LSV

[San Dona' di P. JN]

 Login: GUEST





  
I0OJJ  > KEPS     07.12.24 16:12l 370 Lines 17658 Bytes #23 (0) @ AMSAT
BID : ORB24338.1
Read: GUEST
Subj: 2Line Orbital Elements 24338.AMSAT
Path: IZ3LSV<ED1ZAC<EA2RCF<I0OJJ
Sent: 241203/0411z @:I0OJJ.ITA.EU [Rome] obcm1.08-6-g5b69
From: I0OJJ @ I0OJJ.ITA.EU (Gustavo)
To:   KEPS @ AMSAT
X-Info: This message was generated automatically


QST de W1STR

AMSAT Orbital Elements for Amateur Satellites in TLE Format
From Orbital Analysis Office
New England Sci-Tech STEM Education Center
Natick, MA December 03, 2024
To all radio amateurs


These element sets describe the orbits of various satellites 
in use by the amateur radio community. For details see:
www.amsat.org/keplerian-elements-formats/

A daily update of element sets is available at:
www.amsat.org/tle/daily-bulletin.txt
or without bulletin text:
www.amsat.org/tle/dailytle.txt


AO-07
1 07530U 74089B   24337.46733355 -.00000032  00000-0  92103-4 0  9993
2 07530 101.9895 333.7593 0012355 122.5279  45.7987 12.53683294290124
UO-11
1 14781U 84021B   24337.34376130  .00004179  00000-0  45915-3 0  9990
2 14781  97.7292 301.9291 0006314 236.1580 123.9037 14.88164008173481
AO-27
1 22825U 93061C   24337.11747321  .00000467  00000-0  19596-3 0  9993
2 22825  98.7666  31.4667 0007570 312.7517  47.3027 14.30670572626625
FO-29
1 24278U 96046B   24337.55064371  .00000023  00000-0  56728-4 0  9995
2 24278  98.5873 250.1618 0350949 112.1453 251.7325 13.53223491397204
NOAA-15
1 25338U 98030A   24337.76302265  .00000503  00000-0  22523-3 0  9996
2 25338  98.5541   1.2760 0010128 185.9486 174.1576 14.26814051381470
GO-32
1 25397U 98043D   24337.36530914  .00000402  00000-0  19428-3 0  9993
2 25397  98.9467 306.8095 0002114  57.5955 302.5427 14.24202964371352
ISS
1 25544U 98067A   24337.89416845  .00018620  00000-0  33144-3 0  9999
2 25544  51.6392 199.5637 0006865 294.2754 187.0731 15.50155390484711
NO-44
1 26931U 01043C   24337.53293909  .00000747  00000-0  31158-3 0  9997
2 26931  67.0511 256.5498 0006989 261.2305  98.8005 14.31524861210045
SO-50
1 27607U 02058C   24337.49327659  .00003869  00000-0  51830-3 0  9997
2 27607  64.5562  63.6950 0033528  27.1211 333.1636 14.80428319181225
CO-55
1 27844U 03031E   24337.29780213  .00001215  00000-0  55150-3 0  9991
2 27844  98.6779 342.0436 0010132  23.1411 337.0222 14.23676550111702
CO-57
1 27848U 03031J   24335.82460399  .00000982  00000-0  45475-3 0  9991
2 27848  98.6809 340.7334 0010365  42.7813 317.4171 14.23054915111231
RS-22
1 27939U 03042A   24337.83280200  .00003512  00000-0  57644-3 0  9991
2 27939  98.3073 137.0732 0010688 245.5469 243.3878 14.71298517133066
NOAA-18
1 28654U 05018A   24337.76992135  .00000532  00000-0  30641-3 0  9997
2 28654  98.8620  53.2426 0013333 307.3721  52.6236 14.13440004  7077
CO-58
1 28895U 05043F   24337.33413701  .00005760  00000-0  97752-3 0  9996
2 28895  98.2234 113.8430 0015073 182.8755 177.2366 14.69518126 19133
CO-65
1 32785U 08021C   24337.49277853  .00011806  00000-0  93509-3 0  9995
2 32785  97.7713 302.0401 0012717 133.6051 226.6229 15.00670874900756
AAUSAT2
1 32788U 08021F   24337.19772367  .00082312  00000-0  23816-2 0  9998
2 32788  97.6044 319.8598 0002790  32.6275 327.5140 15.35285099903928
CO-66
1 32791U 08021J   24336.87573113  .00024156  00000-0  14538-2 0  9997
2 32791  97.7094 308.0353 0007387  92.1519 268.0556 15.10796437901852
RS-30
1 32953U 08025A   24337.75828233  .00000027  00000-0  12264-3 0  9991
2 32953  82.5032 344.6369 0020673  97.1374 263.2058 12.43154359750070
PRISM
1 33493U 09002B   24336.95270901  .00085305  00000-0  22225-2 0  9990
2 33493  98.1786  40.8537 0007852  24.7350 335.4268 15.38511413864644
NOAA-19
1 33591U 09005A   24337.74607456  .00000505  00000-0  29376-3 0  9993
2 33591  99.0260  35.1616 0013973 173.2945 186.8416 14.13217813815431
SRMSAT
1 37841U 11058D   24337.35186056  .00000799  00000-0  29144-3 0  9999
2 37841  19.9708 219.5415 0011843 143.5486  13.2047 14.11300145678349
RS-40
1 38735U 12041C   24337.53383369  .00000041  00000-0  22407-3 0  9996
2 38735  82.4774  64.9106 0017303 209.0335 150.9784 12.42621252560082
ZACUBE-1
1 39417U 13066B   24335.29811376  .00017089  00000-0  16109-2 0  9998
2 39417  97.7565 288.1153 0046435 332.7702  27.1083 14.93039222596331
Delfi-N3xt
1 39428U 13066N   24337.49783441  .00017298  00000-0  19580-2 0  9993
2 39428  97.8367 251.8939 0090253 261.4614  97.6365 14.83538448590994
GOMX-1
1 39430U 13066Q   24337.68184610  .00004391  00000-0  70311-3 0  9990
2 39430  97.7045 201.8230 0137402  76.3048 285.3412 14.66053241587719
LO-74
1 39440U 13066AA  24337.58047846  .00009920  00000-0  10744-2 0  9995
2 39440  97.8308 278.1055 0068012  82.4843 278.4093 14.86720222593320
AO-73
1 39444U 13066AE  24337.68932755  .00016259  00000-0  13823-2 0  9996
2 39444  97.7411 294.1590 0041892 301.2343  58.4777 14.97236825595863
DTUSAT-2
1 40030U 14033W   24337.52712654  .00015623  00000-0  11525-2 0  9992
2 40030  98.0318 295.1851 0010082 351.3165   8.7883 15.03339480567945
EO-80
1 40032U 14033Y   24337.15804300  .00016146  00000-0  11893-2 0  9992
2 40032  98.0234 294.7079 0006958 286.5109  73.5350 15.03409955567860
XW-2C
1 40906U 15049H   24337.78096962  .00131994  00000-0  11883-2 0  9994
2 40906  97.4564   1.2802 0006479  62.6493 297.5426 15.67766669510623
LILACSAT-2
1 40908U 15049K   24337.78145775  .00017677  00000-0  56775-3 0  9994
2 40908  97.5189 348.3417 0012812 110.6814 249.5802 15.32274693509250
IO-86
1 40931U 15052B   24337.09180034  .00002217  00000-0  20975-3 0  9992
2 40931   5.9986 232.5457 0013173 302.5393  57.3463 14.78392648496340
ChubuSat-2
1 41338U 16012B   24337.51741682  .00011623  00000-0  65233-3 0  9997
2 41338  31.0018  24.6231 0010860 132.0809 228.0755 15.12063074483069
ChubuSat-3
1 41339U 16012C   24337.47966713  .00010448  00000-0  60262-3 0  9998
2 41339  31.0085  24.7030 0010882 133.8674 226.2865 15.11057539482930
Horyu-4
1 41340U 16012D   24337.29656867  .00032754  00000-0  12604-2 0  9996
2 41340  31.0012 313.6972 0009859 249.9305 110.0277 15.25157739483755
Lapan A3
1 41603U 16040E   24337.79744971  .00006493  00000-0  24307-3 0  9993
2 41603  97.1386 344.1046 0010235 214.5884 145.4691 15.27573279468944
Pratham
1 41783U 16059A   24337.52919763  .00002218  00000-0  41284-3 0  9990
2 41783  97.8288 348.9932 0031386 203.9360 156.0386 14.65724927437199
CAS-2T
1 41847U 16066G   24337.24974366  .00002734  00000-0  39954-3 0  9992
2 41847  98.4442  47.2779 0350335  30.9244 331.2070 14.42486027423715
CAS-4B
1 42759U 17034B   24337.50765090  .00044540  00000-0  10746-2 0  9990
2 42759  43.0150 347.9029 0012951  55.0785 305.1286 15.40413000413241
CAS-4A
1 42761U 17034D   24337.74960121  .00044013  00000-0  10506-2 0  9990
2 42761  43.0191 344.6672 0013534  66.6254 293.6025 15.40732278413292
D-SAT
1 42794U 17036AF  24337.79263530  .00014694  00000-0  91624-3 0  9996
2 42794  97.4958 314.0623 0099314 295.1942  63.9012 15.05545592406076
TechnoSat
1 42829U 17042E   24337.73705773  .00007460  00000-0  61486-3 0  9992
2 42829  97.3853 149.7308 0011671 225.7761 134.2505 14.99265118402406
AO-91
1 43017U 17073E   24336.08310847  .00015031  00000-0  83081-3 0  9995
2 43017  97.5506 206.0077 0195516  92.9766 269.3849 14.99056681380615
S-Net D
1 43186U 18014G   24337.46487932  .00012036  00000-0  77865-3 0  9996
2 43186  97.5767 236.5712 0010594 142.6200 217.5767 15.08284709373838
S-Net B
1 43187U 18014H   24337.46822809  .00012294  00000-0  79536-3 0  9996
2 43187  97.5772 236.5358 0011488 139.4115 220.7971 15.08270734373839
S-Net A
1 43188U 18014J   24337.46581090  .00012216  00000-0  78998-3 0  9996
2 43188  97.5781 236.6613 0011368 139.5210 220.6866 15.08287868373837
S-Net C
1 43189U 18014K   24337.47025945  .00012336  00000-0  79777-3 0  9999
2 43189  97.5796 236.6467 0013111 134.5188 225.7114 15.08268431372384
Ten-Koh
1 43677U 18084G   24337.16876432  .00007284  00000-0  61349-3 0  9991
2 43677  98.0783 136.1401 0013186 179.7757 180.3473 14.98464509331858
PO-101
1 43678U 18084H   24337.76611246  .00003439  00000-0  30598-3 0  9998
2 43678  98.0872 141.0743 0008334 185.3335 174.7798 14.96765525332124
QO-100
1 43700U 18090A   24337.36229840  .00000171  00000-0  00000-0 0  9994
2 43700   0.0211 343.3163 0001837 309.7328 294.8673  1.00269859 22041
MinXSS-2
1 43758U 18099A   24337.56101677  .00022767  00000-0  11603-2 0  9993
2 43758  97.5319  37.9332 0015365  97.7746 262.5233 15.16673123328236
AO-95
1 43770U 18099N   24336.89336652  .00018771  00000-0  11119-2 0  9997
2 43770  97.5234  31.5315 0012896 144.3393 215.8701 15.11377712327847
RANGE-B
1 43772U 18099Q   24337.42572440  .00033894  00000-0  16172-2 0  9993
2 43772  97.5024  36.4723 0004984  52.5653 307.6034 15.18982860328170
RANGE-A
1 43773U 18099R   24336.37694709  .00010431  00000-0  72120-3 0  9998
2 43773  97.4781  24.3825 0013340 120.9313 239.3227 15.05823856327560
MOVE-II
1 43780U 18099Y   24337.42374896  .00066788  00000-0  21478-2 0  9990
2 43780  97.4970  40.2721 0005286 106.5828 253.5995 15.31987393328524
SNUSat 2
1 43782U 18099AA  24336.57601849  .00017343  00000-0  10768-2 0  9991
2 43782  97.4910  29.3825 0014511  90.1039 270.1853 15.09663672327787
SnugLite
1 43784U 18099AC  24337.42418865  .00018906  00000-0  11129-2 0  9990
2 43784  97.4722  29.5228 0005245  92.9748 267.2083 15.11660228328005
ITASat 1
1 43786U 18099AE  24337.40610963  .00013646  00000-0  87148-3 0  9994
2 43786  97.4876  30.1710 0016911 134.1822 226.0800 15.08653508327890
EAGLET 1
1 43790U 18099AJ  24337.40113198  .00009719  00000-0  66746-3 0  9994
2 43790  97.5068  30.5729 0014371 114.8042 245.4681 15.06084427327562
ESEO
1 43792U 18099AL  24337.53396848  .00004342  00000-0  34187-3 0  9996
2 43792  97.4848  26.2698 0010139  81.5943 278.6431 15.01269683327446
CSIM
1 43793U 18099AM  24337.46181271  .00071987  00000-0  23468-2 0  9999
2 43793  97.5124  42.1550 0009045  83.5566 276.6705 15.31498237328373
